Regional Weather Roundup
Issued by NWS Burlington, VT

Home | Current Version | Previous Version | Text Only | Print | Product List | Glossary On
Versions: 1 2 3 4 5 6 7 8 9 10 11 12 13 14 15 16 17 18 19 20 21 22 23 24 25 26 27 28 29 30 31 32 33 34 35 36 37 38 39 40 41 42 43 44 45 46 47 48 49 50
000
ASUS41 KBTV 291110
RWRBTV
VERMONT REGIONAL WEATHER ROUNDUP
NATIONAL WEATHER SERVICE BURLINGTON VT
600 AM EST MON DEC 29 2014

NOTE: "FAIR" INDICATES FEW OR NO CLOUDS BELOW 12,000 FEET WITH NO
SIGNIFICANT WEATHER AND/OR OBSTRUCTIONS TO VISIBILITY.

* THESE REPORTS ARE NOT UNDER NWS QUALITY CONTROL AND/OR DO NOT
  REPORT WEATHER SUCH AS PRECIPITATION AND FOG.

VTZ001>019-291200-
_____VERMONT_____


CITY           SKY/WX    TMP DP  RH WIND       PRES   REMARKS
BURLINGTON     LGT SNOW  30  24  78 N12       30.08R
MONTPELIER     CLOUDY    30  16  56 W10       30.02S
MORRISVILLE    LGT SNOW  28  24  85 N13       30.04R VSB 3/4 WCI  17
ST. JOHNSBURY*   N/A     30  20  66 MISG      29.99R
LYNDONVILLE*   CLOUDY    29  17  59 W7        29.98S
MIDDLEBURY*    CLOUDY    30  24  77 CALM      30.05R
RUTLAND*       CLOUDY    32  18  55 W10G18    30.04R
SPRINGFIELD    MOSUNNY   31  19  61 CALM      30.04R
HIGHGATE*      CLOUDY    28  12  52 NW9G28    30.09R
NEWPORT*       LGT SNOW  26  21  81 W10       30.01R WCI  17
BENNINGTON     MOSUNNY   31  23  72 SW8       30.07R

_____LAKE CHAMPLAIN_____


CITY           SKY/WX    TMP DP  RH WIND       PRES   REMARKS

$$

NYZ007-026>031-035-052-083-291200-
_____NORTHERN NEW YORK_____


CITY           SKY/WX    TMP DP  RH WIND       PRES   REMARKS
PLATTSBURGH    CLOUDY    30  18  60 NW17      30.09R WCI  18
SARANAC LAKE   CLOUDY    23  18  81 NW9       30.00R
MASSENA        MOSUNNY   22  11  62 NW8       30.16R
POTSDAM*       CLOUDY    25  16  68 NW8       30.15R
WATERTOWN      CLOUDY    31  19  61 NW10      30.15R
FT DRUM        CLOUDY    28  17  64 N8        30.12R
ALBANY         MOSUNNY   32  24  72 N3        30.13R
GLENS FALLS    PTSUNNY   34  19  54 W9G17     30.09R

$$
NHZ002-005-011-291200-
_____NEW HAMPSHIRE_____


CITY           SKY/WX    TMP DP  RH WIND       PRES   REMARKS
LEBANON        PTSUNNY   34  20  56 SW9       30.02R
KEENE          MOSUNNY   28  23  80 S3        30.06R
MT WASHINGTON  SNOWSHWR   5   5 100 NW64G71     N/A  VSB 1/16WCI -27
PLYMOUTH       PTSUNNY   28  26  91 CALM      30.01R
WHITEFIELD     CLOUDY    30  16  56 VRB5      29.98R

$$

_____REGIONAL QUEBEC LOCATIONS_____


CITY           SKY/WX    TMP DP  RH WIND       PRES   REMARKS
MONTREAL       SUNNY     21   5  49 W15G23    30.12R WCI   8
QUEBEC CITY    MOSUNNY   21  10  63 W18       29.96R WCI   6
SHERBROOKE     CLOUDY    27  16  63 W17G23    29.98R WCI  14

_____REGIONAL ONTARIO LOCATIONS_____


CITY           SKY/WX    TMP DP  RH WIND       PRES   REMARKS
OTTAWA         MOSUNNY   16   5  62 NW15      30.17R WCI   1

______KEY______
VSB  - VISIBILITY IN MILES
WCI  - WIND CHILL INDEX
HX   - HEAT INDEX
$$
NNNN



USA.gov is the U.S. government's official web portal to all federal, state and local government web resources and services.